Volver al catálogo

METEOR 2-8 DEB

ActivoPO
NORAD 36858·DEBRIS·🇷🇺 Russia

Lanzado Mar 25, 1982 desde Plesetsk Cosmodrome

Loading…

Próximos Pases (próximas 24 horas)

TLE

ActualizadoSource: Space-Track

Época: Sep 13, 2026, 10:38 UTC

1 36858U 82025AV  26256.44355976  .00003781  00000-0  15781-2 0  9994
2 36858  82.5165 146.5416 0043734 317.1210  42.6565 14.25496113 55736

Sigue METEOR 2-8 DEB en tiempo real con AllMySat

Download on the App Store